IUS DEB, 26076

Orbit data source: Space-Track

IUS DEB, 26076 is space debris originally from a launch on Fri, 23 Jul 1999 UTC launched from the Air Force Eastern Test Range (AFETR). Debris objects in space refer to the collection of defunct objects orbiting the Earth. Examples of debris include non-operational satellites, rocket bodies, and fragments generated from explosions, collisions, or faulty payload assembly.

Loading next visibility...
Identifier
26076, 1999-040E
Orbit
Active
Country
Flag of USUS
Related business
Manufacturer
Boeing/Kent
Mission
Spacecraft
Bus & Motor
Unknown
Mass
Unknown
Launch date (UTC)
1999-07-23 (27 years ago)
Launch vehicle
Unknown
Launch site
Air Force Eastern Test Range (AFETR)
Object type
Payload
Rocket body
Debris
Shape & HBR
Unknown shape, 0.1 m
Radar Cross Section
Medium (>0.1 m² and <1 m²)

Expand to show TLE details & history
Last TLE update: 2 weeks ago

TLE from 2 weeks ago
0 IUS DEB
1 26076U 99040E   26249.14763407  .00001186  00000-0  37046-3 0  9997
2 26076  28.4092  71.2039 4312651 193.7234 149.3608  6.70735093533519
Epoch: 2026-09-06T03:32Z
TLE epoch observation values (Epoch: 2026-09-06T03:32:35.583Z)
Latitude
-0.00002°
Longitude
32.80867°
Altitude
10,260.058 km
Speed
3.79 km/s
True Right ascension
04h 44m 48s
True Declination
0° 00' 00"
Sunlit
Object was in daylight at epoch
Visualization orbit readout
Latitude
Unknown
Longitude
Unknown
Altitude
Unknown
Speed
Unknown
Apparent Right ascension
Unknown
Apparent Declination
Unknown
Sunlit
N/A
Visualization observer readout
Local Sidereal Time
16:02:23
Azimuth
Unknown
Elevation
Unknown
Doppler factor
Unknown
Orbital elements
Apogee altitude
10,625.564 km
Perigee altitude
378.541 km
Semi-major axis
11,880.19 km
Eccentricity
0.43127
Inclination
28.4092°
RAAN
71.2039°
Arg. of periapsis
193.7234°
True anomaly
166.3125°
Mean anomaly
149.3608°
Eccentric anomaly
158.44071°
Mean motion
1.67613 °/min
Orbital period
214.78 mins
BSTAR
0.00037046
Loading maneuver chart data...
Computing Atmospheric mass density...
Loading historical data...
Loading historical data...
Loading historical data...
Loading historical data...
Loading historical data...
Loading historical data...
Loading historical data...

Documentation

Showing up to 5 results
|